If you wish to contribute or participate in the discussions about articles you are invited to join SKYbrary as a registered user

 Actions

Alfredo Vásquez Cobo International Airport

From SKYbrary Wiki

SKLT
Airport
ICAO: SKLT – IATA: LET
Summary
Name Alfredo Vásquez Cobo International Airport
Region South America and Caribbean
Territory Colombia CO.gif
Location Leticia, Amazonas Department
Serving Leticia
Elevation 84.43 m
277 ft84.43 m
Coordinates 4° 11' 28.11" S, 69° 56' 29.08" W
Runways
Designator Length Width Surface ROPS
3/21 1880 m6,167.979 ft
40 m131.234 ft
ASP /


METAR
Observation SKLT 312000Z 26004KT 9999 SCT015TCU BKN200 29/27 A2987 RMK TCU/E
Station Leticia / Vasquez Cobo
Date/Time 31 May 2020 20:00:00
Wind direction 260°
Wind speed 04 kts
Lowest cloud amount scattered clouds
Temperature 29°C
Dew point 27°C
Humidity 89%
QNH hPa
Weather condition n/a

Alfredo Vásquez Cobo International Airport is an airport serving Leticia, the capital of the Amazonas Department of Colombia.

Climatology

Tropical rainforest climate (Köppen climate classification Af)

Maps

Terrain

Loading map...

Airport Layout

Loading map...


Accidents & Serious Incidents at or in vicinity of SKLT

None on SKYbrary